User: anonymous   Login
Location: Nebula Knoll Observatory
(43.6666°N, 71.0000°W)
Time: 21:22:21
(UTC-04:00)
Language:

Cosmos 1782 - Orbit

View from above orbital plane
View from above orbital plane
View from above satellite
View from above satellite

Ground track
Ground track

The orbit data is extracted from the following two-line orbital elements,

1 16986U 86074A   16144.84814986  .00000770  00000-0  50713-4 0  9993
2 16986  82.5044 139.8472 0009405 224.7674 135.2795 15.06084687612241
Epoch (UTC): 23 May 2016 20:21:20
Eccentricity: 0.0009405
inclination: 82.5044°
perigee height: 541 km
apogee height: 554 km
right ascension of ascending node: 139.8472°
argument of perigee: 224.7674°
revolutions per day: 15.06084687
mean anomaly at epoch: 135.2795°
orbit number at epoch: 61224

The dashed part of the orbit path shows where the satellite is in the earth's shadow,  

DLR